This is the latest recevied weather packets stored in our database for station/object HB9SZU-6. If no packets are shown the sender has not sent any weather packets the latest 10 day(s).
| Time | Temp. | Humidity | Pressure | Rain* | Wind** | Luminosity | Snow |
|---|---|---|---|---|---|---|---|
| 1777727891 | 23.89° C | 40% | 1026.9 hPa | 0 mm | - | - | - |
| 1777726990 | 23.33° C | 41% | 1027.1 hPa | 0 mm | - | - | - |
| 1777726091 | 23.33° C | 41% | 1027.2 hPa | 0 mm | - | - | - |
| 1777725190 | 22.78° C | 42% | 1027.8 hPa | 0 mm | - | - | - |
| 1777724290 | 22.22° C | 43% | 1027.9 hPa | 0 mm | - | - | - |
| 1777723390 | 21.67° C | 43% | 1028.2 hPa | 0 mm | - | - | - |
| 1777722490 | 21.67° C | 44% | 1028.3 hPa | 0 mm | - | - | - |
| 1777721590 | 21.11° C | 46% | 1028.6 hPa | 0 mm | - | - | - |
| 1777720690 | 20.56° C | 47% | 1028.8 hPa | 0 mm | - | - | - |
| 1777719791 | 20° C | 48% | 1029.3 hPa | 0 mm | - | - | - |
| 1777718890 | 20° C | 50% | 1029.6 hPa | 0 mm | - | - | - |
| 1777717990 | 19.44° C | 51% | 1030 hPa | 0 mm | - | - | - |
| 1777717090 | 19.44° C | 53% | 1030.1 hPa | 0 mm | - | - | - |
| 1777716190 | 18.89° C | 54% | 1030.4 hPa | 0 mm | - | - | - |
| 1777715291 | 18.33° C | 56% | 1030.4 hPa | 0 mm | - | - | - |
| 1777714391 | 17.78° C | 58% | 1031 hPa | 0 mm | - | - | - |
| 1777713491 | 17.22° C | 60% | 1031.1 hPa | 0 mm | - | - | - |
| 1777712591 | 16.67° C | 62% | 1031.5 hPa | 0 mm | - | - | - |
| 1777711690 | 16.11° C | 63% | 1031.6 hPa | 0 mm | - | - | - |
| 1777710790 | 15.56° C | 64% | 1031.7 hPa | 0 mm | - | - | - |
| 1777709890 | 15° C | 64% | 1031.8 hPa | 0 mm | - | - | - |
| 1777708991 | 14.44° C | 65% | 1032 hPa | 0 mm | - | - | - |
| 1777708091 | 13.89° C | 65% | 1032.2 hPa | 0 mm | - | - | - |
| 1777707190 | 13.33° C | 65% | 1032.3 hPa | 0 mm | - | - | - |
| 1777706291 | 12.78° C | 66% | 1032.4 hPa | 0 mm | - | - | - |
* Rain latest hour (hover to see other rain measurements)
** Current wind speed in m/s (hover to see current wind gust speed)